SCP
-0 -0 0 -0 -0 -0 0 -0 -0 -0 -0 -0 -0 -0 -0 -0 -0 -0 -0 -0 -0 -0 -0 -0 -0 -0 -0 -0 -0 0 0 0 -0 -0 -0 -0 -0 0 0 0 -0 0 0
-0 -0 -0 -0 -0 -0 -0 0 -0 -0 -0 -0 -0 -0 -0 -0 -0 -0 -0 -0 -0 -0 -0 -0 -0 0 0 0 0 0 0 0 0 -0 -0 -0 -0 -0 -0 -0 -0 0 -0
-0 -0 -0 -0 -0 -0 0 0 0 -0 -0 -0 -0 -0 -0 -0 -0 -0 -0 -0 -0 -0 -0 -0 0 0 0 0 0 0 -0 0 0 -0 -0 -0 0 -0 -0 -0 -0 -0 -0
-0 -0 -0 -0 -0 -0 -0 0 0 0 -0 -0 -0 -0 -0 -0 -0 -0 -0 -0 0 0 0 0 0 0 0 0 0 0 0 0 0 -0 -0 0 -0 -0 -0 0 -0 -0 -0
-0 -0 -0 -0 0 0 0 0 0 0 0 0 -0 -0 -0 -0 -0 -0 -0 -0 0 0 0 0 0 0 -0 -0 0 0 0 -0 -0 -0 -0 -0 0 -0 -0 -0 0 -0 -0
-0 -0 -0 0 0 0 0 0 0 0 0 0 0 0 -0 0 0 0 -0 -0 -0 -0 -0 0 0 -0 -0 0 0 0 -0 -0 -0 -0 0 -0 -0 0 0 0 0 -0 -0
-0 -0 -0 0 0 0 0 0 0 0 0 0 0 0 0 -0 0 0 0 0 -0 0 0 0 -0 -0 0 0 0 -0 -0 -0 0 0 -0 -0 -0 0 0 0 -0 0 0
-0 0 0 0 -0 0 0 0 0 0 0 0 0 0 0 -0 0 0 0 0 0 0 0 0 -0 0 0 0 0 0 0 -0 -0 -0 -0 0 0 0 0 0 -0 0 -0
-0 0 0 -0 0 -0 0 0 0 0 0 0 0 0 0 0 0 -0 0 -0 0 0 0 0 0 0 0 0 0 0 -0 -0 -0 0 0 0 0 0 -0 0 0 -0 0
-0 -0 -0 0 -0 -0 0 0 0 0 0 0 0 0 0 0 0 -0 -0 0 0 0 0 0 0 -0 -0 0 0 0 0 0 0 0 0 0 0 0 0 -0 0 0 0
0 0 0 -0 -0 -0 -0 0 0 0 0 0 0 0 0 0 0 0 0 0 0 0 0 0 -0 -0 -0 0 0 1 1 0 0 0 0 0 0 0 0 0 0 0 0
0 0 0 0 0 -0 -0 -0 -0 -0 0 0 0 -0 0 0 0 0 0 0 0 0 0 0 0 0 0 0 0 1 1 1 1 0 0 0 0 0 0 0 0 0 0
-0 -0 -0 0 0 -0 -0 -0 -0 -0 -0 0 0 0 0 0 0 0 0 0 0 0 0 0 0 0 1 1 0 1 1 0 0 0 0 0 0 0 0 0 0 0 0
-0 -0 -0 0 0 0 0 -0 -0 -0 -0 0 0 0 0 0 0 0 0 0 0 0 0 0 0 1 1 0 0 0 0 0 -0 0 0 0 0 0 0 0 0 0 0
-0 -0 -0 -0 -0 -0 -0 0 0 0 -0 0 -0 0 0 0 0 0 0 0 0 0 0 0 0 0 0 0 0 -0 0 0 0 0 0 0 1 1 0 0 0 0 0
-0 -0 0 -0 -0 0 0 -0 0 -0 -0 -0 -0 -0 0 -0 0 0 0 0 0 0 0 0 0 0 0 0 0 -0 0 0 0 0 0 0 1 1 1 0 0 0 1
-0 -0 -0 -0 -0 -0 0 -0 0 0 0 0 0 0 0 0 0 0 0 0 0 0 0 0 0 0 0 0 0 0 0 0 0 0 0 0 1 1 1 0 0 0 0
-0 -0 -0 -0 -0 -0 -0 -0 -0 -0 -0 0 -0 -0 0 0 -0 0 0 0 0 0 0 0 -0 0 0 0 0 0 0 0 0 0 0 0 0 0 1 1 1 1 0
-0 -0 0 -0 -0 -0 0 -0 -0 0 -0 0 0 0 0 -0 0 0 0 0 -0 0 -0 0 0 0 0 0 0 0 0 0 0 0 1 0 0 0 0 1 1 1 1
0 0 -0 -0 0 -0 0 -0 0 0 0 0 -0 0 0 -0 -0 -0 -0 -0 0 -0 -0 0 0 0 0 0 0 0 0 0 0 0 0 0 0 0 0 0 1 1 1
0 0 0 -0 -0 0 -0 -0 -0 -0 -0 -0 0 0 0 0 0 0 0 -0 0 0 0 -0 0 0 0 0 0 0 0 0 0 0 0 0 0 0 0 0 0 0 0
0 0 0 0 0 0 -0 -0 -0 -0 0 -0 0 0 0 0 0 -0 -0 -0 -0 -0 0 0 0 0 0 0 0 0 0 0 0 0 0 0 0 0 0 0 1 0 0
-0 0 0 0 0 0 -0 0 0 0 0 0 0 0 0 0 0 0 0 0 -0 0 0 0 0 0 0 0 0 0 0 0 0 0 0 0 0 0 0 0 0 0 0
0 0 0 0 0 -0 0 0 0 -0 0 0 -0 -0 0 -0 0 0 0 -0 0 0 0 0 0 0 0 0 0 0 0 0 0 0 0 0 0 0 0 0 0 0 0
0 0 0 0 0 -0 -0 0 -0 -0 0 0 0 0 -0 -0 -0 -0 -0 0 0 0 0 0 0 0 0 0 0 0 0 0 0 0 0 0 0 0 0 0 0 0 0
-0 0 0 0 0 -0 -0 0 0 -0 0 0 0 0 0 -0 0 -0 0 -0 -0 0 0 0 0 0 0 0 0 0 0 0 0 0 0 0 -0 -0 0 0 0 0 0
Wind_Speed_500mb
36 35 35 35 36 31 24 23 21 20 20 21 23 24 26 28 30 30 31 33 35 36 37 40 43 45 49 51 54 55 51 46 45 46 48 49 49 44 40 36 36 38 37
45 40 38 35 32 26 24 22 22 23 23 24 27 26 25 28 29 30 31 31 34 34 38 39 43 46 51 55 60 61 59 51 43 40 45 43 39 33 32 35 38 39 36
48 42 38 30 28 27 25 24 24 24 24 26 26 28 28 27 28 28 31 33 33 35 36 39 41 46 50 52 51 52 53 59 48 40 32 39 40 35 34 36 37 36 37
49 42 35 31 28 26 24 24 24 24 25 25 24 26 27 28 28 30 32 33 33 34 35 39 40 51 52 50 49 45 38 43 29 32 31 38 39 37 36 35 35 33 35
47 44 39 32 29 28 25 24 25 24 24 24 25 26 28 28 30 32 33 33 34 36 34 38 42 48 50 47 48 42 33 41 37 27 28 33 38 33 32 29 30 32 32
47 43 39 32 31 28 25 24 25 23 23 24 24 27 29 30 32 31 32 33 34 37 35 36 45 50 51 47 44 43 37 36 24 18 26 31 33 31 31 32 31 33 30
45 41 38 32 29 28 26 24 23 24 25 26 25 25 28 29 31 33 33 33 34 36 33 37 45 50 45 44 43 41 32 24 26 22 28 31 34 32 30 31 30 30 30
42 42 37 32 28 27 26 24 23 27 27 28 25 24 27 31 31 33 33 34 33 31 31 35 41 41 37 42 41 37 29 23 26 29 32 32 31 28 28 29 30 30 28
41 39 35 31 27 25 25 23 25 31 31 32 29 28 31 32 33 35 36 36 36 36 34 36 39 44 38 41 40 36 28 24 28 25 28 29 30 27 25 26 25 26 25
31 33 34 29 27 25 26 29 34 32 38 43 45 42 36 36 35 38 40 39 40 39 41 43 46 42 37 35 33 31 26 26 28 21 24 28 26 24 23 22 20 22 23
36 38 34 36 32 29 29 38 39 39 35 29 38 45 38 34 39 42 43 45 45 46 48 49 49 48 40 30 26 23 17 21 18 15 16 25 22 22 22 22 21 20 20
43 37 27 25 33 39 40 43 40 36 28 28 31 35 38 30 38 42 47 49 48 47 47 48 41 40 34 29 21 16 20 13 24 15 13 19 19 19 19 18 17 18 19
51 52 38 35 37 36 32 41 40 32 29 31 36 37 31 29 38 42 42 35 35 33 31 37 38 29 17 27 26 19 11 13 31 19 15 16 16 18 17 16 16 17 16
64 44 29 33 33 26 19 19 32 33 28 22 33 31 28 28 34 31 24 18 31 25 30 30 39 26 18 24 22 23 14 14 29 33 25 23 21 19 18 16 16 16 15
57 37 37 35 36 24 25 24 23 23 27 37 25 25 24 25 17 21 21 13 17 25 30 35 23 23 24 20 21 33 18 18 19 27 36 32 26 22 18 16 16 14 13
48 41 40 42 34 33 30 33 34 28 36 25 27 32 31 24 15 23 22 21 12 23 27 29 29 21 16 14 17 21 15 10 17 18 23 29 31 26 21 19 17 16 15
47 40 38 44 42 32 31 26 33 30 29 21 25 31 35 27 18 22 22 20 21 20 28 26 24 24 18 24 23 16 15 8 1 14 19 18 23 28 27 26 24 21 21
45 36 29 33 44 32 31 38 29 24 26 15 19 15 18 26 25 22 17 18 17 18 13 21 29 27 18 21 17 15 17 20 9 8 14 16 17 23 29 34 28 25 25
36 23 18 32 41 29 38 32 20 18 31 26 18 18 16 24 31 22 27 21 16 19 23 18 22 15 13 19 14 9 6 6 10 8 9 11 17 17 24 26 30 27 28
43 37 27 28 22 32 41 29 23 22 20 19 20 18 17 23 26 24 19 24 20 23 21 19 15 13 12 12 11 10 12 7 7 5 4 12 15 20 24 14 19 24 29
47 44 33 40 33 29 38 34 28 24 15 23 16 10 14 16 30 22 26 22 19 18 14 21 20 9 4 10 6 8 10 9 4 6 13 11 8 14 17 12 10 13 18
52 40 49 42 40 31 35 31 23 20 19 18 14 12 15 16 31 23 20 19 5 28 25 24 19 15 13 10 8 3 5 10 12 4 10 8 7 3 10 15 18 16 24
55 43 63 48 43 34 42 33 23 26 24 21 20 14 16 10 30 24 23 18 19 23 24 22 17 10 18 11 12 9 8 10 17 11 12 11 14 7 3 10 22 23 21
56 46 49 58 45 36 48 29 22 31 17 11 17 19 19 10 24 23 28 18 20 16 17 23 15 12 13 6 4 13 12 14 10 15 15 13 16 12 7 6 6 14 18
60 51 42 54 50 43 47 36 28 23 22 18 20 24 21 21 16 10 26 16 21 20 20 22 15 19 12 5 8 3 6 12 10 4 16 17 16 9 6 3 3 5 15
62 52 51 53 53 48 54 46 39 38 36 27 24 25 14 13 18 19 20 21 25 23 32 24 16 19 14 6 6 9 6 13 12 22 16 20 16 15 11 5 1 3 9
Wind_Direction_500mb
152 146 133 115 114 112 107 98 88 81 78 75 74 76 83 90 89 97 98 98 98 99 97 98 97 94 98 98 95 92 92 90 92 94 95 94 90 84 82 87 84 84 76
147 143 132 123 118 116 106 96 90 83 78 79 77 81 91 95 93 97 104 101 98 96 98 99 99 98 100 99 96 92 93 89 82 88 97 94 88 83 88 83 81 84 82
146 140 134 127 121 115 108 101 91 86 84 85 83 87 89 98 106 103 101 102 100 98 99 101 97 100 101 101 98 92 92 88 74 77 88 90 92 95 86 83 80 86 84
144 140 134 127 121 114 107 102 98 88 85 86 87 89 89 93 103 104 103 105 104 104 105 102 100 107 103 100 95 89 97 103 81 75 85 92 95 92 85 83 80 84 88
139 140 131 125 121 114 114 102 95 94 90 88 93 95 93 96 101 110 110 107 109 106 100 108 106 112 114 105 92 82 100 102 109 82 85 96 94 90 87 84 86 76 87
134 137 130 125 125 121 112 104 97 95 93 93 100 100 101 99 105 112 111 110 110 110 102 105 108 120 119 107 100 93 89 102 111 87 95 98 96 95 91 90 83 78 86
138 138 131 126 121 117 108 104 100 100 96 99 98 102 102 108 107 112 113 110 112 113 107 102 111 121 116 111 118 105 104 94 89 107 105 102 96 95 90 90 87 81 84
145 143 135 124 117 117 112 105 99 94 96 94 93 101 111 114 112 115 113 110 109 113 110 100 106 121 120 108 108 95 97 70 90 102 99 98 102 97 92 89 84 86 85
145 145 136 128 122 116 107 101 101 100 103 96 96 104 111 112 115 115 113 109 106 105 103 99 103 118 117 106 117 108 97 73 87 93 98 97 99 97 91 89 81 85 82
126 137 127 123 115 109 109 104 106 106 106 104 99 98 107 108 109 114 112 108 102 100 99 96 100 113 118 109 109 107 105 68 69 80 96 97 99 98 92 97 88 85 78
126 116 122 108 101 105 103 110 114 110 111 110 105 98 94 101 106 110 107 105 102 99 99 105 108 107 113 110 114 100 105 77 62 76 91 98 100 97 95 88 83 83 80
149 145 119 110 101 110 99 107 112 109 110 87 102 99 95 104 105 106 107 107 108 106 106 110 114 107 102 99 117 103 130 70 39 61 80 94 99 95 89 89 89 82 75
154 160 136 117 110 109 103 106 108 106 99 96 100 97 102 104 116 108 109 108 101 103 110 116 94 82 111 103 103 132 140 79 44 51 65 75 83 82 81 77 73 71 71
156 156 141 124 128 133 124 124 114 97 116 121 123 123 134 140 133 121 119 109 94 99 109 102 97 74 93 89 74 183 133 70 53 54 60 60 59 61 67 70 71 67 61
157 157 148 141 136 138 154 137 133 110 132 151 137 122 158 127 124 130 124 139 112 111 114 113 104 94 118 114 102 92 133 69 53 50 60 59 56 55 56 60 61 58 54
155 152 140 147 141 144 158 143 140 135 135 143 155 138 139 131 140 118 136 124 99 104 114 118 118 116 109 117 104 120 64 68 48 47 49 50 50 53 57 59 56 56 60
149 149 148 155 153 147 169 153 156 158 148 153 150 156 148 156 151 144 132 122 119 113 121 126 136 129 107 116 117 118 123 129 66 54 39 43 38 42 59 67 65 67 69
151 151 159 179 167 164 148 157 142 162 153 161 158 144 154 158 174 151 146 155 144 143 131 127 148 135 95 134 126 116 99 116 142 63 68 46 44 55 65 67 69 71 74
151 165 161 163 186 177 158 157 154 170 169 176 183 154 142 169 146 150 147 153 163 165 123 133 122 151 139 149 147 142 155 124 103 103 71 47 35 52 50 67 61 71 69
176 157 174 184 171 156 164 159 188 178 196 178 171 181 164 161 176 146 145 173 173 138 145 142 136 133 173 148 174 174 212 241 233 137 113 41 49 62 51 76 69 70 67
177 180 164 175 191 176 179 167 176 174 151 185 178 174 152 165 183 166 161 164 165 156 161 142 128 151 169 95 46 249 211 183 151 251 210 68 46 33 41 43 61 77 76
182 182 180 190 199 194 182 175 195 174 190 191 179 152 142 154 179 172 173 175 154 144 152 164 147 144 117 80 89 111 163 167 178 179 128 143 11 338 42 15 56 80 72
187 191 186 194 198 202 178 184 200 196 207 194 190 189 151 162 170 172 169 157 160 161 166 178 176 162 130 119 78 75 135 121 149 164 168 196 195 184 294 89 70 48 37
194 197 194 203 201 197 176 192 205 186 192 165 164 178 152 164 181 173 178 180 187 168 159 150 151 170 156 145 122 91 108 111 156 161 179 164 176 185 204 218 44 50 33
189 197 205 209 208 195 186 185 197 198 187 210 194 185 172 160 180 189 189 205 199 196 194 163 168 185 184 99 43 220 96 78 109 309 198 176 185 165 131 321 8 22 13
200 209 209 211 212 197 192 192 191 204 211 204 181 166 175 164 168 183 200 226 217 182 185 189 196 201 194 161 130 99 104 90 69 45 205 175 169 144 149 87 87 19 348
Wind_Speed_850mb
36 35 35 35 36 31 24 23 21 20 20 21 23 24 26 28 30 30 31 33 35 36 37 40 43 45 49 51 54 55 51 46 45 46 48 49 49 44 40 36 36 38 37
45 40 38 35 32 26 24 22 22 23 23 24 27 26 25 28 29 30 31 31 34 34 38 39 43 46 51 55 60 61 59 51 43 40 45 43 39 33 32 35 38 39 36
48 42 38 30 28 27 25 24 24 24 24 26 26 28 28 27 28 28 31 33 33 35 36 39 41 46 50 52 51 52 53 59 48 40 32 39 40 35 34 36 37 36 37
49 42 35 31 28 26 24 24 24 24 25 25 24 26 27 28 28 30 32 33 33 34 35 39 40 51 52 50 49 45 38 43 29 32 31 38 39 37 36 35 35 33 35
47 44 39 32 29 28 25 24 25 24 24 24 25 26 28 28 30 32 33 33 34 36 34 38 42 48 50 47 48 42 33 41 37 27 28 33 38 33 32 29 30 32 32
47 43 39 32 31 28 25 24 25 23 23 24 24 27 29 30 32 31 32 33 34 37 35 36 45 50 51 47 44 43 37 36 24 18 26 31 33 31 31 32 31 33 30
45 41 38 32 29 28 26 24 23 24 25 26 25 25 28 29 31 33 33 33 34 36 33 37 45 50 45 44 43 41 32 24 26 22 28 31 34 32 30 31 30 30 30
42 42 37 32 28 27 26 24 23 27 27 28 25 24 27 31 31 33 33 34 33 31 31 35 41 41 37 42 41 37 29 23 26 29 32 32 31 28 28 29 30 30 28
41 39 35 31 27 25 25 23 25 31 31 32 29 28 31 32 33 35 36 36 36 36 34 36 39 44 38 41 40 36 28 24 28 25 28 29 30 27 25 26 25 26 25
31 33 34 29 27 25 26 29 34 32 38 43 45 42 36 36 35 38 40 39 40 39 41 43 46 42 37 35 33 31 26 26 28 21 24 28 26 24 23 22 20 22 23
36 38 34 36 32 29 29 38 39 39 35 29 38 45 38 34 39 42 43 45 45 46 48 49 49 48 40 30 26 23 17 21 18 15 16 25 22 22 22 22 21 20 20
43 37 27 25 33 39 40 43 40 36 28 28 31 35 38 30 38 42 47 49 48 47 47 48 41 40 34 29 21 16 20 13 24 15 13 19 19 19 19 18 17 18 19
51 52 38 35 37 36 32 41 40 32 29 31 36 37 31 29 38 42 42 35 35 33 31 37 38 29 17 27 26 19 11 13 31 19 15 16 16 18 17 16 16 17 16
64 44 29 33 33 26 19 19 32 33 28 22 33 31 28 28 34 31 24 18 31 25 30 30 39 26 18 24 22 23 14 14 29 33 25 23 21 19 18 16 16 16 15
57 37 37 35 36 24 25 24 23 23 27 37 25 25 24 25 17 21 21 13 17 25 30 35 23 23 24 20 21 33 18 18 19 27 36 32 26 22 18 16 16 14 13
48 41 40 42 34 33 30 33 34 28 36 25 27 32 31 24 15 23 22 21 12 23 27 29 29 21 16 14 17 21 15 10 17 18 23 29 31 26 21 19 17 16 15
47 40 38 44 42 32 31 26 33 30 29 21 25 31 35 27 18 22 22 20 21 20 28 26 24 24 18 24 23 16 15 8 1 14 19 18 23 28 27 26 24 21 21
45 36 29 33 44 32 31 38 29 24 26 15 19 15 18 26 25 22 17 18 17 18 13 21 29 27 18 21 17 15 17 20 9 8 14 16 17 23 29 34 28 25 25
36 23 18 32 41 29 38 32 20 18 31 26 18 18 16 24 31 22 27 21 16 19 23 18 22 15 13 19 14 9 6 6 10 8 9 11 17 17 24 26 30 27 28
43 37 27 28 22 32 41 29 23 22 20 19 20 18 17 23 26 24 19 24 20 23 21 19 15 13 12 12 11 10 12 7 7 5 4 12 15 20 24 14 19 24 29
47 44 33 40 33 29 38 34 28 24 15 23 16 10 14 16 30 22 26 22 19 18 14 21 20 9 4 10 6 8 10 9 4 6 13 11 8 14 17 12 10 13 18
52 40 49 42 40 31 35 31 23 20 19 18 14 12 15 16 31 23 20 19 5 28 25 24 19 15 13 10 8 3 5 10 12 4 10 8 7 3 10 15 18 16 24
55 43 63 48 43 34 42 33 23 26 24 21 20 14 16 10 30 24 23 18 19 23 24 22 17 10 18 11 12 9 8 10 17 11 12 11 14 7 3 10 22 23 21
56 46 49 58 45 36 48 29 22 31 17 11 17 19 19 10 24 23 28 18 20 16 17 23 15 12 13 6 4 13 12 14 10 15 15 13 16 12 7 6 6 14 18
60 51 42 54 50 43 47 36 28 23 22 18 20 24 21 21 16 10 26 16 21 20 20 22 15 19 12 5 8 3 6 12 10 4 16 17 16 9 6 3 3 5 15
62 52 51 53 53 48 54 46 39 38 36 27 24 25 14 13 18 19 20 21 25 23 32 24 16 19 14 6 6 9 6 13 12 22 16 20 16 15 11 5 1 3 9
Wind_Direction_850mb
152 146 133 115 114 112 107 98 88 81 78 75 74 76 83 90 89 97 98 98 98 99 97 98 97 94 98 98 95 92 92 90 92 94 95 94 90 84 82 87 84 84 76
147 143 132 123 118 116 106 96 90 83 78 79 77 81 91 95 93 97 104 101 98 96 98 99 99 98 100 99 96 92 93 89 82 88 97 94 88 83 88 83 81 84 82
146 140 134 127 121 115 108 101 91 86 84 85 83 87 89 98 106 103 101 102 100 98 99 101 97 100 101 101 98 92 92 88 74 77 88 90 92 95 86 83 80 86 84
144 140 134 127 121 114 107 102 98 88 85 86 87 89 89 93 103 104 103 105 104 104 105 102 100 107 103 100 95 89 97 103 81 75 85 92 95 92 85 83 80 84 88
139 140 131 125 121 114 114 102 95 94 90 88 93 95 93 96 101 110 110 107 109 106 100 108 106 112 114 105 92 82 100 102 109 82 85 96 94 90 87 84 86 76 87
134 137 130 125 125 121 112 104 97 95 93 93 100 100 101 99 105 112 111 110 110 110 102 105 108 120 119 107 100 93 89 102 111 87 95 98 96 95 91 90 83 78 86
138 138 131 126 121 117 108 104 100 100 96 99 98 102 102 108 107 112 113 110 112 113 107 102 111 121 116 111 118 105 104 94 89 107 105 102 96 95 90 90 87 81 84
145 143 135 124 117 117 112 105 99 94 96 94 93 101 111 114 112 115 113 110 109 113 110 100 106 121 120 108 108 95 97 70 90 102 99 98 102 97 92 89 84 86 85
145 145 136 128 122 116 107 101 101 100 103 96 96 104 111 112 115 115 113 109 106 105 103 99 103 118 117 106 117 108 97 73 87 93 98 97 99 97 91 89 81 85 82
126 137 127 123 115 109 109 104 106 106 106 104 99 98 107 108 109 114 112 108 102 100 99 96 100 113 118 109 109 107 105 68 69 80 96 97 99 98 92 97 88 85 78
126 116 122 108 101 105 103 110 114 110 111 110 105 98 94 101 106 110 107 105 102 99 99 105 108 107 113 110 114 100 105 77 62 76 91 98 100 97 95 88 83 83 80
149 145 119 110 101 110 99 107 112 109 110 87 102 99 95 104 105 106 107 107 108 106 106 110 114 107 102 99 117 103 130 70 39 61 80 94 99 95 89 89 89 82 75
154 160 136 117 110 109 103 106 108 106 99 96 100 97 102 104 116 108 109 108 101 103 110 116 94 82 111 103 103 132 140 79 44 51 65 75 83 82 81 77 73 71 71
156 156 141 124 128 133 124 124 114 97 116 121 123 123 134 140 133 121 119 109 94 99 109 102 97 74 93 89 74 183 133 70 53 54 60 60 59 61 67 70 71 67 61
157 157 148 141 136 138 154 137 133 110 132 151 137 122 158 127 124 130 124 139 112 111 114 113 104 94 118 114 102 92 133 69 53 50 60 59 56 55 56 60 61 58 54
155 152 140 147 141 144 158 143 140 135 135 143 155 138 139 131 140 118 136 124 99 104 114 118 118 116 109 117 104 120 64 68 48 47 49 50 50 53 57 59 56 56 60
149 149 148 155 153 147 169 153 156 158 148 153 150 156 148 156 151 144 132 122 119 113 121 126 136 129 107 116 117 118 123 129 66 54 39 43 38 42 59 67 65 67 69
151 151 159 179 167 164 148 157 142 162 153 161 158 144 154 158 174 151 146 155 144 143 131 127 148 135 95 134 126 116 99 116 142 63 68 46 44 55 65 67 69 71 74
151 165 161 163 186 177 158 157 154 170 169 176 183 154 142 169 146 150 147 153 163 165 123 133 122 151 139 149 147 142 155 124 103 103 71 47 35 52 50 67 61 71 69
176 157 174 184 171 156 164 159 188 178 196 178 171 181 164 161 176 146 145 173 173 138 145 142 136 133 173 148 174 174 212 241 233 137 113 41 49 62 51 76 69 70 67
177 180 164 175 191 176 179 167 176 174 151 185 178 174 152 165 183 166 161 164 165 156 161 142 128 151 169 95 46 249 211 183 151 251 210 68 46 33 41 43 61 77 76
182 182 180 190 199 194 182 175 195 174 190 191 179 152 142 154 179 172 173 175 154 144 152 164 147 144 117 80 89 111 163 167 178 179 128 143 11 338 42 15 56 80 72
187 191 186 194 198 202 178 184 200 196 207 194 190 189 151 162 170 172 169 157 160 161 166 178 176 162 130 119 78 75 135 121 149 164 168 196 195 184 294 89 70 48 37
194 197 194 203 201 197 176 192 205 186 192 165 164 178 152 164 181 173 178 180 187 168 159 150 151 170 156 145 122 91 108 111 156 161 179 164 176 185 204 218 44 50 33
189 197 205 209 208 195 186 185 197 198 187 210 194 185 172 160 180 189 189 205 199 196 194 163 168 185 184 99 43 220 96 78 109 309 198 176 185 165 131 321 8 22 13
200 209 209 211 212 197 192 192 191 204 211 204 181 166 175 164 168 183 200 226 217 182 185 189 196 201 194 161 130 99 104 90 69 45 205 175 169 144 149 87 87 19 348